[[{"header":{"parameterUnit":"m.s-1","parameterCategory":2,"la1":30.2991,"la2":30.254,"lo1":-89.0895,"lo2":-89.0444,"dy":0.0017,"dx":0.0017,"nx":28,"ny":28,"refTime":"2024-12-02T09:00:00:Z","depth":"0","parameterNumber":2,"parameterNumberName":"U-component_of_CURRENTS"},"data":[0,0,0,0,0,0,0,0,0,0,0,0,0,0,0,0,0,0,0,0,0,0,0,0,0,0,0,0,0,0,0,0,0,0,0,0,0,0,0,0,0,0,0,0,0,0,0,0,0,0,0,0,0,0,0,0,0,0,-0.3262,-0.3263,0,-0.3299,-0.33,-0.33,-0.3256,-0.3255,-0.3253,-0.3252,-0.321,-0.321,-0.321,0,0,0,0,0,0,0,0,0,0,0,0,0,-0.3159,-0.3161,-0.3262,-0.3263,-0.3264,-0.3299,-0.33,-0.33,-0.3256,-0.3255,-0.3253,-0.3252,-0.321,-0.321,-0.321,0,0,0,0,0,0,0,0,0,0,0,0,0,-0.3198,-0.3161,-0.3262,-0.3249,-0.3248,-0.3299,-0.33,-0.33,-0.3257,-0.3255,-0.3253,-0.3251,-0.321,-0.321,-0.321,-0.3251,0,0,-0.3211,-0.3211,0,0,0,0,0,0,0,0,-0.3196,-0.3201,-0.325,-0.325,-0.3249,-0.3274,-0.3248,-0.3281,-0.3257,-0.325,-0.3252,-0.325,-0.3228,-0.3226,-0.3234,-0.3249,-0.3248,-0.3211,-0.3211,-0.3211,-0.3211,0,0,0,0,0,0,0,-0.3193,-0.3199,-0.3274,-0.3251,-0.3251,-0.3243,-0.3246,-0.3254,-0.3246,-0.3251,-0.3248,-0.3258,-0.3226,-0.3234,-0.3233,-0.3247,-0.3211,-0.3211,-0.3211,-0.3211,-0.3275,-0.3276,0,0,0,0,0,0,-0.3197,-0.3197,-0.3273,-0.3275,-0.3221,-0.3247,-0.325,-0.3265,-0.3247,-0.3244,-0.326,-0.3256,-0.3235,-0.3233,-0.3231,-0.3265,-0.3211,-0.3211,-0.3211,-0.3273,-0.3275,-0.3277,0,0,0,0,0,0,-0.3195,-0.3204,-0.3271,-0.3239,-0.3247,-0.3251,-0.3269,-0.3267,-0.3266,-0.3256,-0.325,-0.3259,-0.3233,-0.3231,-0.3239,-0.3263,-0.3211,-0.3211,-0.3271,-0.3274,-0.3276,-0.3342,0,0,0,0,0,0,-0.3192,-0.3203,-0.321,-0.324,-0.3249,-0.3304,-0.3271,-0.327,-0.3277,-0.3272,-0.3254,-0.3248,-0.3231,-0.3239,-0.3239,-0.3263,-0.3212,-0.3269,-0.3272,-0.3275,-0.3338,-0.3347,-0.3354,0,0,0,0,0,-0.3188,-0.321,-0.321,-0.3219,-0.3261,-0.3305,-0.331,-0.3302,-0.3279,-0.3291,-0.3276,-0.3248,-0.3258,-0.3241,-0.3241,-0.3265,-0.3268,-0.3271,-0.3275,-0.3335,-0.3345,-0.3354,0,0,0,0,0,0,-0.3164,-0.3209,-0.3209,-0.3241,-0.3272,-0.3299,-0.3308,-0.3307,-0.3307,-0.3294,-0.3271,-0.3266,-0.3284,-0.327,-0.3252,-0.3293,-0.3258,-0.3262,-0.3304,-0.3313,-0.3321,-0.3313,-0.3212,0,0,0,0,0,-0.3167,-0.3191,-0.3234,-0.3256,-0.3274,-0.3291,-0.3304,-0.3307,-0.3317,-0.3313,-0.3303,-0.3295,-0.3305,-0.3302,-0.3307,-0.3331,-0.3304,-0.3346,-0.3354,-0.3361,-0.3355,-0.3352,-0.3358,-0.3288,-0.3288,-0.3288,0,0,-0.316,-0.3189,-0.3199,-0.3252,-0.3269,-0.331,-0.3292,-0.3321,-0.3347,-0.3311,-0.3328,-0.3324,-0.3318,-0.3345,-0.3351,-0.3331,-0.3368,-0.3365,-0.3371,-0.3361,-0.3356,-0.3363,-0.3369,-0.3291,-0.329,-0.329,0,0,-0.3169,-0.3189,-0.3216,-0.3252,-0.3295,-0.3316,-0.3327,-0.3361,-0.3364,-0.3396,-0.3376,-0.3385,-0.3396,-0.34,-0.3402,-0.3459,-0.3413,-0.346,-0.349,-0.3488,-0.3493,-0.3497,-0.347,-0.3471,-0.3461,-0.3461,-0.3461,0,-0.3156,-0.3199,-0.323,-0.3274,-0.33,-0.3322,-0.336,-0.3385,-0.3414,-0.3423,-0.3405,-0.3431,-0.3424,-0.3458,-0.3475,-0.3476,-0.3454,-0.3453,-0.3496,-0.35,-0.3503,-0.3474,-0.3475,-0.3464,-0.3464,-0.3464,-0.3463,0,-0.3192,-0.3228,-0.3249,-0.331,-0.3347,-0.3383,-0.3432,-0.3459,-0.3464,-0.3481,-0.3511,-0.351,-0.3517,-0.3529,-0.3517,-0.3546,-0.3516,-0.3509,-0.3469,-0.3514,-0.3481,-0.348,-0.347,-0.3468,-0.3467,-0.3466,0,0,-0.3145,-0.3252,-0.3255,-0.3288,-0.3367,-0.3399,-0.3458,-0.3511,-0.3535,-0.356,-0.3584,-0.3611,-0.3596,-0.3598,-0.3591,-0.3591,-0.3598,-0.3558,-0.3556,-0.3524,-0.357,-0.3485,-0.3475,-0.3594,-0.3595,-0.3595,-0.3537,0,-0.3153,-0.3232,-0.3288,-0.3353,-0.3393,-0.345,-0.3503,-0.3554,-0.3583,-0.3615,-0.3625,-0.3642,-0.3629,-0.3626,-0.3631,-0.3612,-0.3599,-0.3613,-0.3536,-0.3533,-0.3447,-0.3473,-0.3323,-0.3253,-0.3535,-0.3535,-0.3535,0,-0.3157,-0.3211,-0.3276,-0.3373,-0.3395,-0.3438,-0.3511,-0.3565,-0.3629,-0.3649,-0.3674,-0.3678,-0.3695,-0.3667,-0.3651,-0.3657,-0.3612,-0.359,-0.3587,-0.3481,-0.3447,-0.3255,-0.3241,-0.3205,-0.3533,-0.3534,-0.3534,0,-0.3086,-0.3196,-0.324,-0.3274,-0.3391,-0.3422,-0.3477,-0.3558,-0.3599,-0.3657,-0.3679,-0.3705,-0.3704,-0.368,-0.3639,-0.3642,-0.3601,-0.36,-0.3477,-0.347,-0.3312,-0.329,-0.3244,-0.3567,-0.3567,-0.3567,-0.3568,0,-0.306,-0.3092,-0.3207,-0.3228,-0.3277,-0.3376,-0.3426,-0.349,-0.3574,-0.3606,-0.3674,-0.369,-0.3705,-0.3689,-0.3646,-0.3555,-0.3603,-0.3476,-0.3452,-0.3331,-0.3312,-0.3248,-0.3273,-0.3565,-0.3566,-0.3566,-0.3567,0,-0.2964,-0.3045,-0.3099,-0.3212,-0.3242,-0.327,-0.3384,-0.3415,-0.3519,-0.3561,-0.3577,-0.367,-0.3653,-0.3648,-0.3604,-0.3546,-0.3409,-0.3427,-0.3273,-0.3231,-0.3081,-0.3116,-0.3034,-0.2949,-0.3285,-0.3282,-0.328,0,-0.2919,-0.2937,-0.3049,-0.3061,-0.3102,-0.3167,-0.3202,-0.3346,-0.3385,-0.353,-0.3529,-0.3574,-0.3557,-0.3491,-0.3407,-0.331,-0.3298,-0.3111,-0.3093,-0.3045,-0.3067,-0.3092,-0.3028,-0.2908,-0.2903,-0.2899,-0.2896,0,-0.2811,-0.2851,-0.2884,-0.2925,-0.2958,-0.3014,-0.3082,-0.3121,-0.3276,-0.333,-0.3388,-0.34,-0.3374,-0.3233,-0.3138,-0.3059,-0.3027,-0.3024,-0.3015,-0.2799,-0.2781,-0.2694,-0.2975,-0.286,-0.2864,-0.2866,-0.2868,-0.287,-0.2697,-0.2694,-0.2735,-0.2755,-0.2796,-0.2825,-0.2814,-0.2907,-0.2961,-0.3008,-0.3143,-0.3118,-0.3061,-0.2917,-0.2844,-0.2674,-0.2767,-0.2583,-0.2636,-0.2671,-0.2566,-0.276,-0.2601,-0.2603,-0.2605,-0.2606,-0.2608,0,-0.2539,-0.2548,-0.2559,-0.258,-0.2551,-0.2639,-0.269,-0.2649,-0.2639,-0.2737,-0.2752,-0.2742,-0.2596,-0.2572,-0.2435,-0.232,-0.2266,-0.2269,-0.227,-0.2227,-0.2409,-0.2369,-0.2102,-0.2102,-0.2102,-0.2102,-0.2102,-0.2102,-0.2452,-0.24,-0.2414,-0.2318,-0.2323,-0.2237,-0.2227,-0.2198,-0.2228,-0.2214,-0.2261,-0.2356,-0.2363,-0.2447,-0.2271,-0.2153,-0.2103,-0.2032,-0.2087,-0.223,-0.2264,-0.2297,-0.2263,-0.1978,-0.1978,-0.1797,-0.1796,-0.1796]},{"header":{"parameterUnit":"m.s-1","parameterCategory":2,"la1":30.2991,"la2":30.254,"lo1":-89.0895,"lo2":-89.0444,"dy":0.0017,"dx":0.0017,"nx":28,"ny":28,"refTime":"2024-12-02T09:00:00:Z","depth":"0","parameterNumber":3,"parameterNumberName":"V-component_of_CURRENTS"},"data":[0,0,0,0,0,0,0,0,0,0,0,0,0,0,0,0,0,0,0,0,0,0,0,0,0,0,0,0,0,0,0,0,0,0,0,0,0,0,0,0,0,0,0,0,0,0,0,0,0,0,0,0,0,0,0,0,0,0,-0.036,-0.0359,0,-0.0256,-0.0254,-0.0253,-0.0178,-0.0177,-0.0177,-0.0176,-0.0027,-0.0023,-0.002,0,0,0,0,0,0,0,0,0,0,0,0,0,-0.0429,-0.0428,-0.036,-0.0359,-0.0357,-0.0256,-0.0254,-0.0253,-0.0178,-0.0177,-0.0177,-0.0176,-0.0028,-0.0024,-0.0019,0,0,0,0,0,0,0,0,0,0,0,0,0,-0.0368,-0.0428,-0.036,-0.0309,-0.0304,-0.0256,-0.0254,-0.0252,-0.0178,-0.0177,-0.0176,-0.0176,-0.0029,-0.0024,-0.0019,0.0001,0,0,-0.0002,0.0,0,0,0,0,0,0,0,0,-0.0371,-0.0365,-0.0318,-0.0313,-0.0307,-0.0231,-0.0224,-0.0166,-0.0178,-0.0224,-0.0176,-0.0176,-0.0092,-0.0082,-0.0062,0.0008,0.0014,-0.0002,0.0001,0.0004,0.0005,0,0,0,0,0,0,0,-0.0376,-0.0369,-0.0316,-0.0317,-0.031,-0.027,-0.0261,-0.0212,-0.0161,-0.0219,-0.0214,-0.0206,-0.0089,-0.0067,-0.0057,0.0017,-0.0002,0.0003,0.0006,0.0008,0.0127,0.0127,0,0,0,0,0,0,-0.0397,-0.0373,-0.032,-0.0313,-0.034,-0.027,-0.0259,-0.0254,-0.0162,-0.0148,-0.0207,-0.0203,-0.0076,-0.0064,-0.0052,-0.0024,0.0004,0.0009,0.0012,0.0127,0.0127,0.0127,0,0,0,0,0,0,-0.0399,-0.0393,-0.0324,-0.0342,-0.0331,-0.027,-0.0264,-0.0252,-0.0231,-0.0153,-0.0138,-0.0198,-0.0075,-0.0059,-0.0011,-0.0018,0.0011,0.0016,0.0127,0.0127,0.0127,0.0032,0,0,0,0,0,0,-0.0401,-0.0394,-0.04,-0.0344,-0.0331,-0.0307,-0.0265,-0.0251,-0.0228,-0.0222,-0.014,-0.0126,-0.0074,-0.002,-0.0006,-0.001,0.002,0.0127,0.0127,0.0127,0.0035,0.0029,0.0023,0,0,0,0,0,-0.0404,-0.0419,-0.0401,-0.0394,-0.034,-0.0308,-0.0298,-0.025,-0.0228,-0.0226,-0.0168,-0.0128,-0.001,-0.0015,0.0001,-0.0002,0.0127,0.0127,0.0127,0.0038,0.003,0.0023,0,0,0,0,0,0,-0.0452,-0.0411,-0.039,-0.0392,-0.0357,-0.0296,-0.0292,-0.0258,-0.021,-0.0204,-0.0128,-0.011,-0.007,-0.0023,-0.003,0.0033,0.0065,0.0068,-0.0008,-0.0015,-0.0021,-0.0042,0.0025,0,0,0,0,0,-0.0467,-0.0467,-0.0418,-0.042,-0.0407,-0.0351,-0.0332,-0.0301,-0.0251,-0.023,-0.0173,-0.0111,-0.0058,-0.0028,0.0024,0.0058,0.0114,0.0068,0.0062,0.0056,0.0051,0.0124,0.0124,0.0126,0.0126,0.0126,0,0,-0.0485,-0.0464,-0.0463,-0.043,-0.0399,-0.0393,-0.0338,-0.0319,-0.0308,-0.0221,-0.0191,-0.0132,-0.0054,-0.0017,0.0006,0.0023,0.0086,0.0056,0.005,0.0049,0.0124,0.0124,0.0124,0.0126,0.0126,0.0126,0,0,-0.0532,-0.0505,-0.0524,-0.0502,-0.0467,-0.0429,-0.0429,-0.0373,-0.0343,-0.0307,-0.0242,-0.0187,-0.0111,-0.0054,-0.0015,-0.0023,0.0049,-0.0008,-0.0051,0.0019,0.0019,0.002,0.0092,0.01,-0.0008,-0.0009,-0.0009,0,-0.0558,-0.0572,-0.0524,-0.0536,-0.0526,-0.0453,-0.0469,-0.0427,-0.0363,-0.0337,-0.0312,-0.0188,-0.0127,-0.0067,-0.0071,-0.0037,0.0014,-0.0034,0.001,0.0012,0.0014,0.0088,0.0098,-0.0013,-0.0013,-0.0012,-0.0012,0,-0.0617,-0.0626,-0.0636,-0.0625,-0.0606,-0.0608,-0.0549,-0.0521,-0.0474,-0.0423,-0.0357,-0.0267,-0.0191,-0.0164,-0.012,-0.0072,-0.0038,-0.0011,0.0022,0.0008,0.0087,0.0099,-0.002,-0.0018,-0.0017,-0.0016,0,0,-0.0678,-0.068,-0.0683,-0.0697,-0.0655,-0.0648,-0.0626,-0.0581,-0.0561,-0.0485,-0.0447,-0.0353,-0.0293,-0.0246,-0.0175,-0.0114,-0.0052,-0.0066,-0.006,-0.0005,0.0106,0.0167,0.0187,-0.002,-0.0019,-0.0018,0.0154,0,-0.0739,-0.0794,-0.0766,-0.0803,-0.0825,-0.0754,-0.074,-0.0685,-0.0616,-0.0559,-0.0449,-0.0385,-0.0326,-0.0287,-0.0219,-0.0091,-0.0025,-0.0101,0.0121,0.0128,0.0175,0.0201,0.0235,0.0394,0.0166,0.0168,0.017,0,-0.0805,-0.0834,-0.0892,-0.0898,-0.0898,-0.09,-0.0855,-0.083,-0.0723,-0.0667,-0.0575,-0.0478,-0.0367,-0.032,-0.0113,-0.0166,-0.0045,0.0055,0.0064,0.0162,0.0212,0.0374,0.0425,0.0612,0.0189,0.0188,0.0186,0,-0.0881,-0.0916,-0.0969,-0.0973,-0.0965,-0.0967,-0.0949,-0.0866,-0.0842,-0.0727,-0.0684,-0.0536,-0.0448,-0.029,-0.0076,-0.0095,0.0159,0.0165,0.0337,0.0343,0.0437,0.0449,0.0688,0.0306,0.0305,0.0305,0.0304,0,-0.0958,-0.0997,-0.1012,-0.1043,-0.1092,-0.1049,-0.1062,-0.1013,-0.0935,-0.0902,-0.0748,-0.0672,-0.0438,-0.0257,-0.0084,0.0177,0.0162,0.034,0.0395,0.0406,0.0413,0.0632,0.0695,0.0311,0.031,0.0309,0.0307,0,-0.1034,-0.1043,-0.1108,-0.1128,-0.1135,-0.1168,-0.1155,-0.1152,-0.1063,-0.1011,-0.0976,-0.0761,-0.0513,-0.0262,0.0028,0.0181,0.0539,0.0508,0.0508,0.0559,0.0865,0.092,0.121,0.1316,0.0714,0.0716,0.0719,0,-0.1078,-0.1123,-0.1184,-0.1226,-0.124,-0.1274,-0.1291,-0.1229,-0.1212,-0.1058,-0.1032,-0.0779,-0.0578,-0.0115,0.0206,0.0546,0.0679,0.0766,0.0734,0.0905,0.1007,0.1043,0.1112,0.0828,0.0831,0.0833,0.0835,0,-0.1158,-0.1178,-0.123,-0.1329,-0.1372,-0.1415,-0.1425,-0.1435,-0.134,-0.1258,-0.1092,-0.0914,-0.0444,-0.0022,0.043,0.0631,0.0902,0.0824,0.1013,0.1129,0.1175,0.1295,0.069,0.0856,0.0854,0.0853,0.0851,0.0851,-0.1203,-0.1263,-0.1333,-0.142,-0.148,-0.1532,-0.1556,-0.1529,-0.1485,-0.1332,-0.1151,-0.0839,-0.0231,0.0424,0.0661,0.1159,0.1105,0.1293,0.1351,0.1377,0.1468,0.0907,0.1121,0.1121,0.112,0.112,0.112,0,-0.1251,-0.1319,-0.1417,-0.1511,-0.1588,-0.1594,-0.1623,-0.16,-0.1536,-0.1339,-0.1131,-0.0465,0.0139,0.0693,0.1394,0.1665,0.1714,0.18,0.1863,0.1912,0.1442,0.1435,0.1713,0.1713,0.1713,0.1712,0.1712,0.1712,-0.1276,-0.1376,-0.1433,-0.1573,-0.1638,-0.1694,-0.1704,-0.1637,-0.1498,-0.1145,-0.0773,-0.047,0.0332,0.1452,0.2097,0.216,0.2369,0.236,0.2476,0.2147,0.2103,0.2062,0.2073,0.2481,0.2482,0.2926,0.293,0.2934]}],[{"header":{"parameterUnit":"m.s-1","parameterCategory":2,"la1":30.2991,"la2":30.254,"lo1":-89.0895,"lo2":-89.0444,"dy":0.0017,"dx":0.0017,"nx":28,"ny":28,"refTime":"2024-12-02T09:00:00:Z","depth":"2","parameterNumber":2,"parameterNumberName":"U-component_of_CURRENTS"},"data":[0,0,0,0,0,0,0,0,0,0,0,0,0,0,0,0,0,0,0,0,0,0,0,0,0,0,0,0,0,0,0,0,0,0,0,0,0,0,0,0,0,0,0,0,0,0,0,0,0,0,0,0,0,0,0,0,0,0,-0.2879,-0.288,0,-0.2923,-0.2923,-0.2924,-0.2897,-0.2896,-0.2895,-0.2894,-0.2876,-0.2877,-0.2877,0,0,0,0,0,0,0,0,0,0,0,0,0,-0.2781,-0.2782,-0.2879,-0.288,-0.2881,-0.2923,-0.2923,-0.2924,-0.2897,-0.2896,-0.2895,-0.2894,-0.2876,-0.2877,-0.2877,0,0,0,0,0,0,0,0,0,0,0,0,0,-0.2821,-0.2783,-0.2879,-0.2875,-0.2875,-0.2923,-0.2923,-0.2924,-0.2897,-0.2896,-0.2894,-0.2893,-0.2876,-0.2877,-0.2877,-0.2912,0,0,-0.2879,-0.288,0,0,0,0,0,0,0,0,-0.2819,-0.2824,-0.2875,-0.2875,-0.2876,-0.2905,-0.2882,-0.2918,-0.2898,-0.2886,-0.2894,-0.2892,-0.2883,-0.2883,-0.2892,-0.2911,-0.291,-0.2879,-0.288,-0.288,-0.288,0,0,0,0,0,0,0,-0.2816,-0.2823,-0.2894,-0.2876,-0.2876,-0.2874,-0.2877,-0.2889,-0.2889,-0.2887,-0.2886,-0.2896,-0.2882,-0.2891,-0.2891,-0.291,-0.2879,-0.288,-0.2881,-0.2881,-0.2956,-0.2957,0,0,0,0,0,0,-0.2818,-0.282,-0.2892,-0.2895,-0.2846,-0.2877,-0.2881,-0.2895,-0.289,-0.289,-0.2897,-0.2894,-0.2891,-0.289,-0.289,-0.2934,-0.288,-0.2881,-0.2881,-0.2954,-0.2956,-0.2958,0,0,0,0,0,0,-0.2816,-0.2824,-0.2891,-0.286,-0.2869,-0.288,-0.2896,-0.2897,-0.2903,-0.2899,-0.2896,-0.2902,-0.289,-0.2889,-0.2906,-0.2933,-0.2881,-0.2882,-0.2952,-0.2955,-0.2957,-0.302,0,0,0,0,0,0,-0.2813,-0.2823,-0.2831,-0.2861,-0.2871,-0.2924,-0.2898,-0.2899,-0.2913,-0.291,-0.2904,-0.29,-0.2888,-0.2906,-0.2907,-0.2933,-0.2882,-0.295,-0.2953,-0.2956,-0.3016,-0.3024,-0.3031,0,0,0,0,0,-0.2809,-0.283,-0.2832,-0.284,-0.2883,-0.2926,-0.2931,-0.2931,-0.2915,-0.2928,-0.2923,-0.29,-0.2925,-0.2908,-0.2909,-0.2936,-0.2949,-0.2953,-0.2956,-0.3012,-0.3023,-0.3031,0,0,0,0,0,0,-0.2788,-0.283,-0.2833,-0.2863,-0.2894,-0.2922,-0.2934,-0.2938,-0.2946,-0.2938,-0.2923,-0.2921,-0.2947,-0.2936,-0.2917,-0.2967,-0.2933,-0.2937,-0.2976,-0.2985,-0.2993,-0.2983,-0.2883,0,0,0,0,0,-0.2791,-0.2813,-0.2855,-0.2877,-0.2894,-0.2915,-0.293,-0.2938,-0.2952,-0.2954,-0.2952,-0.2952,-0.2966,-0.2969,-0.2978,-0.3007,-0.2984,-0.3025,-0.3033,-0.3039,-0.3034,-0.3033,-0.3039,-0.2969,-0.2969,-0.2969,0,0,-0.2786,-0.2813,-0.2824,-0.2873,-0.2893,-0.2932,-0.2919,-0.2952,-0.298,-0.2952,-0.298,-0.2981,-0.2981,-0.3013,-0.3023,-0.3004,-0.3048,-0.3044,-0.3049,-0.304,-0.3037,-0.3043,-0.3049,-0.2972,-0.2971,-0.2971,0,0,-0.2796,-0.2816,-0.2842,-0.2877,-0.292,-0.2942,-0.2954,-0.2992,-0.3001,-0.3039,-0.3025,-0.3042,-0.3062,-0.3068,-0.3073,-0.3131,-0.3091,-0.3135,-0.3164,-0.3164,-0.3169,-0.3173,-0.3152,-0.3154,-0.3136,-0.3136,-0.3136,0,-0.2787,-0.2827,-0.2855,-0.2897,-0.2924,-0.2949,-0.2987,-0.3015,-0.3052,-0.3064,-0.3053,-0.3091,-0.309,-0.3126,-0.3144,-0.3147,-0.3129,-0.3128,-0.3173,-0.3176,-0.3179,-0.3157,-0.3158,-0.314,-0.3139,-0.3139,-0.3139,0,-0.282,-0.2856,-0.2876,-0.2934,-0.2971,-0.3008,-0.3057,-0.3089,-0.3102,-0.3123,-0.3162,-0.3168,-0.3182,-0.3196,-0.3186,-0.3218,-0.3191,-0.3184,-0.3145,-0.319,-0.3164,-0.3164,-0.3145,-0.3144,-0.3143,-0.3142,0,0,-0.278,-0.2879,-0.2883,-0.2915,-0.2993,-0.3024,-0.3085,-0.314,-0.3169,-0.3203,-0.3233,-0.3266,-0.3258,-0.3262,-0.3259,-0.3261,-0.3272,-0.3231,-0.323,-0.3203,-0.3254,-0.3166,-0.3157,-0.3269,-0.3269,-0.327,-0.3225,0,-0.2789,-0.2862,-0.2915,-0.298,-0.3019,-0.3076,-0.313,-0.3184,-0.3219,-0.3257,-0.3274,-0.3299,-0.3288,-0.3292,-0.3298,-0.3283,-0.3275,-0.3283,-0.322,-0.3217,-0.3128,-0.3156,-0.2915,-0.2849,-0.3225,-0.3225,-0.3225,0,-0.2794,-0.2844,-0.2908,-0.3001,-0.3023,-0.3067,-0.3144,-0.3198,-0.3268,-0.3294,-0.3326,-0.3336,-0.3358,-0.3333,-0.3325,-0.3329,-0.3291,-0.3272,-0.3269,-0.3162,-0.313,-0.2866,-0.2834,-0.3224,-0.3224,-0.3224,-0.3224,0,-0.273,-0.2834,-0.2879,-0.2912,-0.3024,-0.3058,-0.3113,-0.3195,-0.3238,-0.3307,-0.3333,-0.3366,-0.3372,-0.3354,-0.3319,-0.3321,-0.3289,-0.3287,-0.317,-0.3163,-0.2931,-0.2902,-0.3262,-0.3262,-0.3262,-0.3262,-0.3262,0,-0.2708,-0.2742,-0.2851,-0.2872,-0.2924,-0.3018,-0.3072,-0.3138,-0.3224,-0.3257,-0.3332,-0.335,-0.3375,-0.3365,-0.3328,-0.3244,-0.3294,-0.3169,-0.3147,-0.2946,-0.2921,-0.3225,-0.3221,-0.326,-0.3261,-0.3261,-0.3262,0,-0.2623,-0.27,-0.2753,-0.2863,-0.2893,-0.2924,-0.3036,-0.3067,-0.3174,-0.3219,-0.3239,-0.3332,-0.3321,-0.3325,-0.3291,-0.3237,-0.3179,-0.3129,-0.2885,-0.2835,-0.3048,-0.3049,-0.3,-0.2996,-0.2993,-0.2991,-0.2989,0,-0.2584,-0.2603,-0.2711,-0.2724,-0.2767,-0.2833,-0.2867,-0.3007,-0.3044,-0.3186,-0.3184,-0.3234,-0.3213,-0.316,-0.308,-0.2995,-0.3087,-0.2726,-0.269,-0.3039,-0.3023,-0.3028,-0.3032,-0.2405,-0.2398,-0.2393,-0.2388,0,-0.2488,-0.2528,-0.2561,-0.2601,-0.2635,-0.2688,-0.2753,-0.2785,-0.2932,-0.2979,-0.3025,-0.3032,-0.3013,-0.2831,-0.2753,-0.2671,-0.2729,-0.2613,-0.3026,-0.2521,-0.2477,-0.2463,-0.2486,-0.234,-0.2345,-0.2348,-0.2351,-0.2353,-0.2389,-0.2386,-0.2425,-0.2446,-0.2485,-0.2505,-0.2489,-0.2568,-0.2606,-0.2633,-0.2763,-0.2694,-0.2688,-0.245,-0.2332,-0.2248,-0.2435,-0.2315,-0.2332,-0.2354,-0.2306,-0.2261,-0.2072,-0.2075,-0.2078,-0.208,-0.2083,0,-0.2248,-0.2254,-0.2263,-0.2282,-0.2251,-0.2337,-0.2369,-0.2316,-0.2281,-0.2344,-0.2343,-0.2119,-0.2008,-0.2021,-0.1822,-0.1786,-0.1764,-0.1707,-0.1675,-0.1724,-0.1767,-0.1689,-0.1291,-0.1289,-0.1287,-0.1285,0,0,-0.217,-0.2121,-0.2128,-0.2033,-0.2037,-0.1948,-0.1926,-0.1873,-0.1872,-0.1785,-0.1751,-0.1892,-0.1954,-0.1621,-0.1543,-0.1391,-0.154,-0.1316,-0.1948,-0.1958,-0.1999,-0.2111,-0.2046,0,0,0,0,0]},{"header":{"parameterUnit":"m.s-1","parameterCategory":2,"la1":30.2991,"la2":30.254,"lo1":-89.0895,"lo2":-89.0444,"dy":0.0017,"dx":0.0017,"nx":28,"ny":28,"refTime":"2024-12-02T09:00:00:Z","depth":"2","parameterNumber":3,"parameterNumberName":"V-component_of_CURRENTS"},"data":[0,0,0,0,0,0,0,0,0,0,0,0,0,0,0,0,0,0,0,0,0,0,0,0,0,0,0,0,0,0,0,0,0,0,0,0,0,0,0,0,0,0,0,0,0,0,0,0,0,0,0,0,0,0,0,0,0,0,-0.0263,-0.0262,0,-0.017,-0.0169,-0.0168,-0.01,-0.01,-0.0099,-0.0099,0.0038,0.0041,0.0044,0,0,0,0,0,0,0,0,0,0,0,0,0,-0.0319,-0.0319,-0.0263,-0.0262,-0.0261,-0.017,-0.0169,-0.0167,-0.01,-0.01,-0.0099,-0.0099,0.0036,0.004,0.0044,0,0,0,0,0,0,0,0,0,0,0,0,0,-0.0266,-0.0319,-0.0263,-0.0218,-0.0213,-0.0171,-0.0169,-0.0167,-0.01,-0.01,-0.0099,-0.0098,0.0035,0.004,0.0045,0.0063,0,0,0.006,0.0062,0,0,0,0,0,0,0,0,-0.0269,-0.0264,-0.0225,-0.0221,-0.0215,-0.0148,-0.0139,-0.0089,-0.01,-0.0141,-0.0099,-0.0098,-0.0022,-0.0012,0.0006,0.007,0.0075,0.006,0.0063,0.0065,0.0067,0,0,0,0,0,0,0,-0.0273,-0.0267,-0.0224,-0.0224,-0.0218,-0.0181,-0.0173,-0.0129,-0.0084,-0.0137,-0.0133,-0.0126,-0.0019,0.0001,0.001,0.0077,0.006,0.0064,0.0067,0.0069,0.0179,0.0179,0,0,0,0,0,0,-0.0292,-0.0271,-0.0227,-0.0221,-0.0244,-0.0181,-0.0172,-0.0168,-0.0085,-0.0072,-0.0126,-0.0123,-0.0008,0.0004,0.0015,0.0042,0.0065,0.007,0.0073,0.0179,0.0179,0.0179,0,0,0,0,0,0,-0.0294,-0.0289,-0.0231,-0.0245,-0.0235,-0.0181,-0.0177,-0.0167,-0.0148,-0.0077,-0.0064,-0.0118,-0.0007,0.0008,0.0052,0.0048,0.0072,0.0076,0.0179,0.0179,0.0179,0.0096,0,0,0,0,0,0,-0.0296,-0.0291,-0.0297,-0.0247,-0.0235,-0.0216,-0.0178,-0.0166,-0.0145,-0.014,-0.0066,-0.0053,-0.0005,0.0044,0.0057,0.0055,0.008,0.0179,0.0179,0.0179,0.0098,0.0093,0.0088,0,0,0,0,0,-0.0298,-0.0313,-0.0298,-0.0292,-0.0245,-0.0217,-0.0208,-0.0165,-0.0146,-0.0144,-0.0091,-0.0055,0.0053,0.0048,0.0063,0.0062,0.0179,0.0179,0.0179,0.0101,0.0094,0.0088,0,0,0,0,0,0,-0.0341,-0.0307,-0.0288,-0.0292,-0.0261,-0.0206,-0.0203,-0.0173,-0.013,-0.0124,-0.0055,-0.0038,-0.0002,0.0042,0.0034,0.0094,0.0122,0.0125,0.0058,0.0052,0.0046,0.0028,0.0084,0,0,0,0,0,-0.0355,-0.0356,-0.0314,-0.0317,-0.0306,-0.0256,-0.0239,-0.0211,-0.0167,-0.0147,-0.0095,-0.0039,0.001,0.0038,0.0085,0.0117,0.0167,0.0128,0.0122,0.0117,0.0113,0.0182,0.0182,0.0179,0.0179,0.0179,0,0,-0.0372,-0.0354,-0.0354,-0.0326,-0.0298,-0.0293,-0.0244,-0.0228,-0.0217,-0.0139,-0.0111,-0.0058,0.0013,0.0049,0.007,0.0085,0.0145,0.0117,0.0113,0.0111,0.0182,0.0182,0.0183,0.0179,0.0179,0.0179,0,0,-0.0414,-0.0392,-0.0409,-0.039,-0.0359,-0.0325,-0.0325,-0.0276,-0.0248,-0.0215,-0.0156,-0.0105,-0.0036,0.0017,0.0053,0.0049,0.0112,0.0061,0.0025,0.0091,0.0091,0.0093,0.0155,0.0162,0.0062,0.0062,0.0062,0,-0.0437,-0.045,-0.0409,-0.0419,-0.0411,-0.0347,-0.036,-0.0322,-0.0264,-0.0241,-0.0219,-0.0105,-0.0049,0.0009,0.0006,0.0036,0.0081,0.0039,0.0083,0.0085,0.0088,0.0151,0.0161,0.0058,0.0058,0.0059,0.0059,0,-0.0489,-0.0498,-0.0507,-0.0497,-0.048,-0.0482,-0.0429,-0.0404,-0.0362,-0.0316,-0.0255,-0.0172,-0.0103,-0.0077,-0.0037,0.001,0.0038,0.0064,0.0094,0.0083,0.0151,0.0162,0.0052,0.0053,0.0055,0.0056,0,0,-0.0544,-0.0546,-0.0548,-0.0562,-0.0524,-0.0518,-0.0496,-0.0456,-0.0439,-0.0368,-0.0334,-0.0245,-0.0192,-0.0148,-0.0083,-0.0024,0.0033,0.0017,0.0023,0.007,0.0177,0.0214,0.0231,0.0064,0.0065,0.0066,0.0215,0,-0.0598,-0.0646,-0.0621,-0.0654,-0.0674,-0.0611,-0.0597,-0.0548,-0.0487,-0.0436,-0.0333,-0.0276,-0.0219,-0.0186,-0.0119,-0.0004,0.0059,-0.001,0.0189,0.0195,0.0222,0.0244,0.0202,0.0333,0.0227,0.0229,0.023,0,-0.0655,-0.0682,-0.0733,-0.074,-0.0741,-0.0744,-0.0705,-0.0683,-0.0586,-0.0537,-0.0451,-0.0363,-0.0259,-0.0214,-0.0022,-0.007,0.004,0.0131,0.014,0.0211,0.0253,0.033,0.0358,0.025,0.0248,0.0247,0.0245,0,-0.0725,-0.0757,-0.0804,-0.0808,-0.0802,-0.0805,-0.079,-0.0717,-0.0698,-0.0594,-0.0559,-0.0418,-0.0343,-0.0191,0.0002,-0.001,0.0217,0.023,0.0371,0.0376,0.0399,0.0403,0.0362,0.0362,0.0362,0.0362,0.0361,0,-0.0794,-0.083,-0.0845,-0.0873,-0.0922,-0.0882,-0.0899,-0.0856,-0.0788,-0.0764,-0.0619,-0.0556,-0.0336,-0.0174,-0.0009,0.0223,0.0217,0.0373,0.0421,0.0369,0.0368,0.034,0.0336,0.0367,0.0366,0.0365,0.0364,0,-0.0862,-0.0871,-0.0932,-0.0952,-0.0961,-0.0994,-0.099,-0.0991,-0.0913,-0.0872,-0.0842,-0.0651,-0.0432,-0.0198,0.0069,0.0211,0.0426,0.0508,0.0433,0.0468,0.054,0.053,0.0677,0.0679,0.0681,0.0683,0.0685,0,-0.0902,-0.0943,-0.1004,-0.1046,-0.106,-0.1097,-0.1117,-0.1064,-0.1054,-0.0925,-0.0905,-0.0687,-0.0513,-0.0098,0.0191,0.0503,0.0502,0.0638,0.061,0.0543,0.0575,0.056,0.0547,0.0611,0.0612,0.0613,0.0614,0,-0.0977,-0.0997,-0.1045,-0.1142,-0.1187,-0.1232,-0.1249,-0.1262,-0.1182,-0.1116,-0.0978,-0.0825,-0.0419,-0.0074,0.033,0.0504,0.0583,0.0662,0.0635,0.053,0.0492,0.0519,0.0507,0.062,0.0619,0.0619,0.0618,0.0618,-0.102,-0.1076,-0.1144,-0.1228,-0.129,-0.1344,-0.137,-0.1353,-0.1322,-0.1193,-0.1044,-0.0779,-0.0443,0.0134,0.042,0.0685,0.0678,0.0741,0.0735,0.0729,0.0687,0.0654,0.0804,0.0805,0.0805,0.0805,0.0806,0,-0.1069,-0.1131,-0.1223,-0.1316,-0.1392,-0.1403,-0.1437,-0.1416,-0.1366,-0.1204,-0.1031,-0.0648,-0.0248,0.0107,0.0529,0.0778,0.0752,0.0814,0.0727,0.0719,0.0713,0.0666,0.0781,0.0782,0.0782,0.0783,0,0,-0.1094,-0.1187,-0.1237,-0.1372,-0.1439,-0.1498,-0.1511,-0.1448,-0.1329,-0.1153,-0.095,-0.0671,-0.0238,0.0052,0.0367,0.0588,0.0588,0.0608,0.0603,0.0455,0.0446,0.0649,0.0566,0,0,0,0,0]}],[{"header":{"parameterUnit":"m.s-1","parameterCategory":2,"la1":30.2991,"la2":30.254,"lo1":-89.0895,"lo2":-89.0444,"dy":0.0017,"dx":0.0017,"nx":28,"ny":28,"refTime":"2024-12-02T09:00:00:Z","depth":"4","parameterNumber":2,"parameterNumberName":"U-component_of_CURRENTS"},"data":[0,0,0,0,0,0,0,0,0,0,0,0,0,0,0,0,0,0,0,0,0,0,0,0,0,0,0,0,0,0,0,0,0,0,0,0,0,0,0,0,0,0,0,0,0,0,0,0,0,0,0,0,0,0,0,0,0,0,-0.2019,-0.202,0,-0.2106,-0.2107,-0.2108,-0.2156,-0.2157,-0.2157,-0.2157,-0.2236,-0.2238,-0.2239,0,0,0,0,0,0,0,0,0,0,0,0,0,-0.1898,-0.19,-0.2018,-0.202,-0.2021,-0.2106,-0.2107,-0.2108,-0.2156,-0.2157,-0.2157,-0.2158,-0.2235,-0.2237,-0.224,0,0,0,0,0,0,0,0,0,0,0,0,0,-0.1963,-0.1901,-0.2018,-0.2057,-0.2061,-0.2106,-0.2107,-0.2108,-0.2156,-0.2157,-0.2157,-0.2158,-0.2235,-0.2237,-0.224,-0.2247,0,0,-0.2248,-0.2249,0,0,0,0,0,0,0,0,-0.1959,-0.1967,-0.205,-0.2054,-0.2059,-0.2122,-0.2093,-0.2155,-0.2156,-0.2118,-0.2157,-0.2158,-0.2198,-0.2204,-0.2217,-0.225,-0.2254,-0.2248,-0.225,-0.2251,-0.2252,0,0,0,0,0,0,0,-0.1954,-0.1963,-0.2051,-0.2051,-0.2057,-0.2072,-0.2081,-0.2105,-0.2153,-0.2122,-0.2126,-0.2138,-0.22,-0.2214,-0.2219,-0.2255,-0.2248,-0.2251,-0.2252,-0.2253,-0.2388,-0.239,0,0,0,0,0,0,-0.1947,-0.1959,-0.2048,-0.2054,-0.2012,-0.2073,-0.2084,-0.21,-0.2153,-0.2162,-0.2138,-0.214,-0.2209,-0.2216,-0.2222,-0.232,-0.2251,-0.2254,-0.2255,-0.2386,-0.2389,-0.2391,0,0,0,0,0,0,-0.1944,-0.1954,-0.2045,-0.201,-0.2023,-0.2075,-0.2093,-0.2102,-0.2149,-0.2166,-0.2174,-0.218,-0.221,-0.2218,-0.2278,-0.232,-0.2255,-0.2257,-0.2384,-0.2387,-0.239,-0.246,0,0,0,0,0,0,-0.194,-0.1953,-0.1978,-0.2009,-0.2024,-0.2095,-0.2093,-0.2103,-0.2155,-0.216,-0.2204,-0.221,-0.2211,-0.2274,-0.2281,-0.2322,-0.2259,-0.2382,-0.2385,-0.2389,-0.2455,-0.2465,-0.2474,0,0,0,0,0,-0.1936,-0.1964,-0.1979,-0.1991,-0.2052,-0.2097,-0.2107,-0.2143,-0.2157,-0.2186,-0.2219,-0.2211,-0.2302,-0.2278,-0.2285,-0.2329,-0.238,-0.2384,-0.2389,-0.2451,-0.2463,-0.2473,0,0,0,0,0,0,-0.1927,-0.1973,-0.1989,-0.2032,-0.2073,-0.2107,-0.2142,-0.2164,-0.2213,-0.2228,-0.2238,-0.2247,-0.2314,-0.2313,-0.2286,-0.2379,-0.2339,-0.2345,-0.2384,-0.2395,-0.2404,-0.239,-0.2262,0,0,0,0,0,-0.1936,-0.197,-0.2012,-0.205,-0.2073,-0.2114,-0.2143,-0.2171,-0.221,-0.2234,-0.2266,-0.23,-0.2332,-0.2358,-0.2385,-0.2438,-0.2415,-0.247,-0.2479,-0.2487,-0.2481,-0.2486,-0.2495,-0.2406,-0.2406,-0.2406,0,0,-0.1944,-0.1974,-0.1995,-0.2051,-0.2086,-0.2131,-0.2134,-0.2191,-0.2236,-0.2234,-0.2314,-0.2337,-0.2354,-0.2414,-0.2443,-0.2423,-0.2502,-0.2493,-0.2499,-0.2488,-0.2492,-0.25,-0.2508,-0.2409,-0.2408,-0.2408,0,0,-0.1965,-0.2005,-0.2038,-0.2078,-0.214,-0.2166,-0.2191,-0.2249,-0.2287,-0.2358,-0.2367,-0.2415,-0.2474,-0.2491,-0.2505,-0.2581,-0.255,-0.2598,-0.2635,-0.2642,-0.2649,-0.2654,-0.2638,-0.2642,-0.2603,-0.2604,-0.2604,0,-0.1975,-0.202,-0.2057,-0.21,-0.2139,-0.2186,-0.2233,-0.2279,-0.2353,-0.2385,-0.2397,-0.2487,-0.2507,-0.2562,-0.2591,-0.2601,-0.259,-0.2592,-0.2652,-0.2657,-0.2662,-0.2644,-0.2647,-0.2607,-0.2607,-0.2607,-0.2606,0,-0.2009,-0.2063,-0.209,-0.2158,-0.2205,-0.2257,-0.2318,-0.2378,-0.2429,-0.2466,-0.2547,-0.2578,-0.2622,-0.2646,-0.2644,-0.2695,-0.2671,-0.2661,-0.2619,-0.2674,-0.2652,-0.2654,-0.2613,-0.2612,-0.261,-0.2609,0,0,-0.1981,-0.2092,-0.2105,-0.2148,-0.2242,-0.2279,-0.2365,-0.244,-0.2493,-0.2568,-0.2626,-0.2693,-0.2705,-0.272,-0.2731,-0.2742,-0.277,-0.2721,-0.2719,-0.2694,-0.2771,-0.2589,-0.2573,-0.2773,-0.2773,-0.2774,-0.2743,0,-0.1999,-0.2082,-0.2138,-0.2227,-0.2273,-0.2349,-0.242,-0.2497,-0.2563,-0.2632,-0.2674,-0.2734,-0.2735,-0.2763,-0.2779,-0.2775,-0.2778,-0.2778,-0.2729,-0.2727,-0.255,-0.257,-0.2777,-0.2744,-0.2744,-0.2744,-0.2744,0,-0.2003,-0.2061,-0.2148,-0.2259,-0.2288,-0.2353,-0.2463,-0.2534,-0.2633,-0.2684,-0.2747,-0.2777,-0.2824,-0.281,-0.2825,-0.2826,-0.2803,-0.279,-0.2788,-0.2589,-0.2547,-0.2677,-0.2747,-0.2747,-0.2746,-0.2746,-0.2746,0,-0.194,-0.2064,-0.2133,-0.2173,-0.2306,-0.2366,-0.244,-0.255,-0.2607,-0.2714,-0.2756,-0.2818,-0.2848,-0.2845,-0.2826,-0.2833,-0.2813,-0.2816,-0.2627,-0.2614,-0.2757,-0.2751,-0.2808,-0.2808,-0.2808,-0.2808,-0.2809,0,-0.191,-0.197,-0.2116,-0.2151,-0.2235,-0.2342,-0.2433,-0.2517,-0.2624,-0.2666,-0.2772,-0.2791,-0.2858,-0.2856,-0.2833,-0.2718,-0.2818,-0.2619,-0.2589,-0.2789,-0.2787,-0.2758,-0.2752,-0.2807,-0.2807,-0.2808,-0.2808,0,-0.1822,-0.1923,-0.2008,-0.2158,-0.2208,-0.2267,-0.2416,-0.246,-0.259,-0.2645,-0.2678,-0.2779,-0.2769,-0.2797,-0.2783,-0.2697,-0.2628,-0.2562,-0.276,-0.2745,-0.2426,-0.2425,-0.2346,-0.234,-0.2334,-0.2329,-0.2325,0,-0.1779,-0.1817,-0.1985,-0.2025,-0.2098,-0.2205,-0.226,-0.2418,-0.2454,-0.2598,-0.2589,-0.265,-0.2685,-0.2515,-0.2576,-0.2506,-0.2478,-0.2428,-0.2435,-0.2397,-0.2378,-0.2386,-0.2392,-0.2316,-0.2314,-0.2313,-0.2311,0,-0.1684,-0.1763,-0.1825,-0.1914,-0.1988,-0.206,-0.2152,-0.2164,-0.2314,-0.2457,-0.2422,-0.241,-0.2392,-0.2377,-0.2334,-0.2291,-0.2456,-0.2368,-0.238,-0.2386,-0.2359,-0.2347,-0.2361,-0.2291,-0.2294,-0.2296,-0.2297,0,-0.1606,-0.1624,-0.1712,-0.1769,-0.1855,-0.187,-0.1952,-0.1979,-0.2042,-0.2203,-0.2178,-0.225,-0.235,-0.2262,-0.2224,-0.2165,-0.2139,-0.207,-0.2097,-0.212,-0.2061,-0.1995,-0.1773,0,0,0,0,0,-0.1514,-0.151,-0.1552,-0.1606,-0.1681,-0.1729,-0.1847,-0.1929,-0.2077,-0.1984,-0.2077,-0.2047,-0.2004,-0.2051,-0.1941,-0.2129,-0.2152,-0.1993,-0.2089,-0.2181,-0.2204,-0.2156,0,0,0,0,0,0,-0.145,-0.1484,-0.1495,-0.1448,-0.1446,-0.1511,-0.1577,-0.1684,-0.1649,-0.1805,-0.1788,-0.1909,-0.1896,-0.2021,-0.1891,-0.1903,-0.1918,-0.2051,-0.2045,-0.2168,-0.2189,-0.2207,-0.2166,0,0,0,0,0]},{"header":{"parameterUnit":"m.s-1","parameterCategory":2,"la1":30.2991,"la2":30.254,"lo1":-89.0895,"lo2":-89.0444,"dy":0.0017,"dx":0.0017,"nx":28,"ny":28,"refTime":"2024-12-02T09:00:00:Z","depth":"4","parameterNumber":3,"parameterNumberName":"V-component_of_CURRENTS"},"data":[0,0,0,0,0,0,0,0,0,0,0,0,0,0,0,0,0,0,0,0,0,0,0,0,0,0,0,0,0,0,0,0,0,0,0,0,0,0,0,0,0,0,0,0,0,0,0,0,0,0,0,0,0,0,0,0,0,0,-0.018,-0.018,0,-0.0119,-0.0118,-0.0117,-0.007,-0.007,-0.007,-0.0069,0.0036,0.0039,0.0041,0,0,0,0,0,0,0,0,0,0,0,0,0,-0.0208,-0.0208,-0.018,-0.018,-0.0179,-0.0119,-0.0118,-0.0117,-0.007,-0.007,-0.0069,-0.0069,0.0036,0.0039,0.0042,0,0,0,0,0,0,0,0,0,0,0,0,0,-0.0175,-0.0208,-0.018,-0.015,-0.0146,-0.0119,-0.0118,-0.0117,-0.007,-0.007,-0.0069,-0.0069,0.0035,0.0038,0.0042,0.0057,0,0,0.0054,0.0055,0,0,0,0,0,0,0,0,-0.0177,-0.0174,-0.0155,-0.0152,-0.0148,-0.0103,-0.0089,-0.0057,-0.007,-0.0097,-0.0069,-0.0069,-0.0008,-0.0,0.0012,0.0062,0.0067,0.0054,0.0056,0.0058,0.0059,0,0,0,0,0,0,0,-0.018,-0.0176,-0.0154,-0.0154,-0.015,-0.0123,-0.0118,-0.0083,-0.0053,-0.0095,-0.0092,-0.0088,-0.0005,0.0008,0.0015,0.0068,0.0054,0.0057,0.006,0.0061,0.015,0.015,0,0,0,0,0,0,-0.0194,-0.0179,-0.0156,-0.0152,-0.0164,-0.0123,-0.0117,-0.0117,-0.0055,-0.0046,-0.0088,-0.0086,0.0002,0.0011,0.0019,0.0041,0.0058,0.0062,0.0064,0.015,0.015,0.015,0,0,0,0,0,0,-0.0195,-0.0193,-0.0159,-0.0165,-0.0159,-0.0123,-0.0123,-0.0116,-0.0104,-0.0051,-0.004,-0.0084,0.0002,0.0014,0.0047,0.0046,0.0063,0.0067,0.015,0.015,0.015,0.0086,0,0,0,0,0,0,-0.0196,-0.0193,-0.02,-0.0166,-0.0159,-0.015,-0.0123,-0.0115,-0.0103,-0.0099,-0.0043,-0.0033,0.0003,0.0041,0.0051,0.0051,0.007,0.015,0.015,0.015,0.0088,0.0084,0.008,0,0,0,0,0,-0.0197,-0.021,-0.0201,-0.0198,-0.017,-0.0151,-0.0145,-0.0116,-0.0103,-0.0103,-0.0063,-0.0035,0.0049,0.0044,0.0056,0.0057,0.0149,0.015,0.015,0.009,0.0085,0.008,0,0,0,0,0,0,-0.0226,-0.0206,-0.0195,-0.0201,-0.0182,-0.0144,-0.0144,-0.0123,-0.0092,-0.0088,-0.0035,-0.0022,0.0007,0.0041,0.0034,0.0084,0.0105,0.0107,0.0055,0.0051,0.0047,0.0032,0.0073,0,0,0,0,0,-0.0237,-0.0242,-0.0215,-0.0221,-0.0214,-0.018,-0.017,-0.0151,-0.0119,-0.0105,-0.0066,-0.0022,0.0016,0.0039,0.0076,0.0102,0.0142,0.0112,0.0108,0.0104,0.0101,0.0159,0.016,0.015,0.015,0.015,0,0,-0.0251,-0.0241,-0.0243,-0.0227,-0.021,-0.0207,-0.0173,-0.0164,-0.0157,-0.0098,-0.0079,-0.0037,0.002,0.0049,0.0065,0.0077,0.0128,0.0105,0.0101,0.0099,0.0159,0.016,0.0161,0.015,0.015,0.015,0,0,-0.0281,-0.0271,-0.0285,-0.0274,-0.0256,-0.0233,-0.0234,-0.02,-0.0181,-0.0158,-0.0112,-0.0072,-0.0019,0.0025,0.0055,0.0053,0.0103,0.0063,0.0036,0.0092,0.0093,0.0095,0.0142,0.0148,0.0065,0.0064,0.0064,0,-0.0299,-0.0312,-0.0286,-0.0295,-0.0293,-0.0249,-0.0261,-0.0234,-0.0193,-0.0177,-0.0162,-0.0073,-0.0028,0.0021,0.002,0.0044,0.008,0.0046,0.0086,0.0089,0.0091,0.014,0.0148,0.0061,0.0062,0.0062,0.0062,0,-0.0336,-0.0348,-0.0356,-0.0353,-0.0344,-0.0348,-0.0312,-0.0296,-0.0268,-0.0235,-0.0189,-0.0122,-0.0069,-0.0046,-0.0013,0.0028,0.0048,0.007,0.0094,0.0088,0.014,0.0149,0.0057,0.0058,0.0059,0.006,0,0,-0.0373,-0.0382,-0.0386,-0.04,-0.0377,-0.0377,-0.0363,-0.0337,-0.0329,-0.0274,-0.0252,-0.0177,-0.0137,-0.0102,-0.0048,0.0003,0.0053,0.0037,0.0041,0.0076,0.0171,0.015,0.0158,0.008,0.0081,0.0083,0.0198,0,-0.0411,-0.0452,-0.0438,-0.047,-0.0487,-0.0448,-0.0442,-0.0409,-0.0367,-0.0333,-0.0249,-0.0209,-0.0158,-0.0134,-0.0074,0.0021,0.0075,0.0019,0.0178,0.0183,0.0159,0.0167,0.0087,0.0205,0.0207,0.0209,0.021,0,-0.0451,-0.0475,-0.0521,-0.0538,-0.0542,-0.0551,-0.0534,-0.0521,-0.0453,-0.0418,-0.0351,-0.0284,-0.0196,-0.0157,0.0006,-0.0034,0.0058,0.0135,0.0141,0.0149,0.0178,0.0215,0.0227,0.0226,0.0224,0.0223,0.0222,0,-0.0496,-0.0531,-0.0574,-0.0581,-0.0589,-0.0601,-0.0599,-0.0552,-0.0544,-0.047,-0.0449,-0.0331,-0.0274,-0.0142,0.0015,0.0012,0.0194,0.0214,0.0285,0.0285,0.0297,0.0295,0.0326,0.0326,0.0326,0.0325,0.0325,0,-0.0538,-0.0574,-0.0607,-0.0632,-0.0685,-0.0663,-0.0693,-0.0666,-0.0625,-0.0613,-0.0502,-0.0458,-0.0269,-0.014,0.0002,0.0168,0.0189,0.028,0.0314,0.0268,0.026,0.0304,0.03,0.033,0.0329,0.0328,0.0327,0,-0.0577,-0.0596,-0.0656,-0.0693,-0.0711,-0.0749,-0.0773,-0.0782,-0.0734,-0.0711,-0.0691,-0.0547,-0.0377,-0.0183,0.0041,0.0141,0.0309,0.0364,0.0295,0.0322,0.0367,0.0358,0.0452,0.0453,0.0453,0.0453,0.0453,0,-0.0598,-0.0634,-0.0714,-0.076,-0.0784,-0.0835,-0.0866,-0.0843,-0.0842,-0.0762,-0.0748,-0.0591,-0.0474,-0.0167,0.0027,0.0298,0.0332,0.041,0.0393,0.0357,0.0381,0.0372,0.0363,0.0453,0.0453,0.0453,0.0454,0,-0.0638,-0.0672,-0.0721,-0.0823,-0.0881,-0.0936,-0.0971,-0.0979,-0.0934,-0.0899,-0.0777,-0.0608,-0.0417,-0.0175,0.0034,0.0226,0.0354,0.0413,0.0414,0.0398,0.036,0.0381,0.0372,0.0454,0.0454,0.0454,0.0454,0,-0.0664,-0.0713,-0.0786,-0.0868,-0.0951,-0.1004,-0.1021,-0.0999,-0.0985,-0.0881,-0.0846,-0.0622,-0.049,-0.0212,-0.002,0.0166,0.0211,0.0259,0.0268,0.027,0.0178,0.01,0.0144,0,0,0,0,0,-0.0682,-0.0736,-0.0823,-0.091,-0.0995,-0.1034,-0.1072,-0.1067,-0.1028,-0.0948,-0.0889,-0.0701,-0.0401,-0.027,-0.0084,-0.0031,0.0226,0.0187,0.0282,0.0458,0.0457,0.0377,0,0,0,0,0,0,-0.0694,-0.0776,-0.0821,-0.0924,-0.0987,-0.1065,-0.1089,-0.1064,-0.1004,-0.094,-0.0774,-0.0675,-0.0379,-0.05,-0.0084,-0.0029,0.005,0.0335,0.0338,0.0458,0.0458,0.0457,0.0375,0,0,0,0,0]}]]